Location: Newark
(21.1200°N, 73.4000°E)
Time: 00:04:32
(UTC+00:00)

Explorer 11/Cluster Stage 4 - All Passes

Search period start: 20 January 2020 00:00
Search period end: 30 January 2020 00:00
Orbit: 467 x 1259 km, 28.8° (Epoch: 19 January)

Date Brightness Start Highest point End Pass type
(mag) Time Alt. Az. Time Alt. Az. Time Alt. Az.
20 Jan - 07:33:16 10° SSW 07:39:22 23° SSE 07:45:11 10° E daylight
20 Jan - 09:20:35 10° SW 09:28:35 62° SSE 09:35:29 10° ENE daylight
20 Jan - 11:10:25 10° W 11:17:53 62° NNW 11:23:58 10° ENE daylight
20 Jan - 13:01:14 10° WNW 13:07:18 39° N 13:12:12 10° ENE visible
20 Jan - 14:51:19 10° WNW 14:56:33 44° N 15:00:47 10° E visible
20 Jan - 16:40:36 10° WNW 16:45:07 62° SSW 16:48:55 10° SE night (unlit)
21 Jan - 07:21:49 10° SSW 07:28:28 27° SSE 07:34:52 10° E daylight
21 Jan - 09:09:32 10° WSW 09:17:42 71° SSE 09:24:53 10° ENE daylight
21 Jan - 10:59:34 10° W 11:07:08 58° NNW 11:13:24 10° ENE daylight
21 Jan - 12:50:23 10° WNW 12:56:41 40° N 13:01:47 10° ENE daylight
21 Jan - 14:40:26 10° WNW 14:46:00 51° NNE 14:50:27 10° E visible
21 Jan - 16:29:53 10° WNW 16:34:30 50° SSW 16:38:20 10° SE visible
22 Jan - 07:10:31 10° SSW 07:17:33 32° SSE 07:24:24 10° E daylight
22 Jan - 08:58:33 10° WSW 09:06:50 79° SSE 09:14:14 10° ENE daylight
22 Jan - 10:48:43 10° W 10:56:23 54° NNW 11:02:49 10° ENE daylight
22 Jan - 12:39:30 10° WNW 12:46:04 41° N 12:51:23 10° ENE daylight
22 Jan - 14:29:31 10° WNW 14:35:25 58° NNE 14:40:04 10° E visible
22 Jan - 16:19:10 10° W 16:23:51 41° SSW 16:27:44 10° SE visible
23 Jan - 05:17:36 10° SE 05:17:38 10° SE 05:17:42 10° SE daylight
23 Jan - 06:59:18 10° SSW 07:06:36 37° SSE 07:13:51 10° E daylight
23 Jan - 08:47:36 10° WSW 08:55:56 87° SSE 09:03:32 10° ENE daylight
23 Jan - 10:37:53 10° W 10:45:38 52° NNW 10:52:14 10° ENE daylight
23 Jan - 12:28:37 10° WNW 12:35:26 43° N 12:40:58 10° ENE daylight
23 Jan - 14:18:36 10° WNW 14:24:48 67° NNE 14:29:40 10° E visible
23 Jan - 16:08:29 10° W 16:13:11 35° SSW 16:17:04 10° SE visible
24 Jan - 05:03:49 10° SSE 05:06:45 12° SE 05:09:46 10° ESE daylight
24 Jan - 06:48:11 10° SW 06:55:40 42° SSE 07:03:14 10° E daylight
24 Jan - 08:36:43 10° WSW 08:45:03 85° NNW 08:52:49 10° ENE daylight
24 Jan - 10:27:04 10° W 10:34:52 50° N 10:41:38 10° ENE daylight
24 Jan - 12:17:43 10° WNW 12:24:46 46° N 12:30:32 10° ENE daylight
24 Jan - 14:07:40 10° WNW 14:14:09 77° NNE 14:19:14 10° ESE visible
24 Jan - 15:57:49 10° W 16:02:28 29° SSW 16:06:20 10° SSE visible
25 Jan - 04:51:54 10° S 04:55:51 15° SE 05:00:00 10° ESE daylight
25 Jan - 06:37:09 10° SW 06:44:42 48° SSE 06:52:32 10° E daylight
25 Jan - 08:25:52 10° WSW 08:34:10 78° NNW 08:42:04 10° ENE daylight
25 Jan - 10:16:15 10° W 10:24:07 49° N 10:31:02 10° ENE daylight
25 Jan - 12:06:47 10° WNW 12:14:05 49° N 12:20:06 10° E daylight
25 Jan - 13:56:43 10° WNW 14:03:28 87° NNE 14:08:46 10° ESE visible
25 Jan - 15:47:10 10° W 15:51:43 25° SW 15:55:33 10° SSE visible
26 Jan - 04:40:21 10° S 04:44:56 17° SE 04:49:51 10° ESE daylight
26 Jan - 06:26:11 10° SW 06:33:45 54° SSE 06:41:46 10° ENE daylight
26 Jan - 08:15:04 10° WSW 08:23:17 72° NNW 08:31:17 10° ENE daylight
26 Jan - 10:05:26 10° WNW 10:13:21 49° N 10:20:25 10° ENE daylight
26 Jan - 11:55:51 10° WNW 12:03:23 52° N 12:09:39 10° E daylight
26 Jan - 13:45:47 10° WNW 13:52:45 82° SSW 13:58:14 10° ESE visible
26 Jan - 15:36:35 10° W 15:40:57 22° SW 15:44:41 10° SSE visible
27 Jan - 04:29:00 10° S 04:34:01 20° SE 04:39:29 10° E daylight
27 Jan - 06:15:17 10° SW 06:22:48 62° SSE 06:30:58 10° ENE daylight
27 Jan - 08:04:19 10° W 08:12:25 67° NNW 08:20:30 10° ENE daylight
27 Jan - 09:54:38 10° WNW 10:02:34 48° N 10:09:48 10° ENE daylight
27 Jan - 11:44:55 10° WNW 11:52:39 56° N 11:59:10 10° E daylight
27 Jan - 13:34:51 10° WNW 13:41:59 72° SSW 13:47:40 10° ESE visible
27 Jan - 15:26:03 10° W 15:30:10 19° SW 15:33:44 10° S visible
28 Jan - 04:17:49 10° SSW 04:23:06 23° SE 04:28:59 10° E daylight
28 Jan - 06:04:27 10° SW 06:11:53 69° SSE 06:20:06 10° ENE daylight
28 Jan - 07:53:36 10° W 08:01:34 62° NNW 08:09:41 10° ENE daylight
28 Jan - 09:43:50 10° WNW 09:51:48 48° N 09:59:10 10° ENE daylight
28 Jan - 11:33:58 10° WNW 11:41:54 61° NNE 11:48:39 10° E daylight
28 Jan - 13:23:56 10° WNW 13:31:12 63° SSW 13:37:03 10° SE visible
28 Jan - 15:15:38 10° WSW 15:19:21 16° SW 15:22:38 10° S visible
29 Jan - 04:06:45 10° SSW 04:12:11 27° SE 04:18:23 10° E daylight
29 Jan - 05:53:41 10° WSW 06:00:58 77° SSE 06:09:13 10° ENE daylight
29 Jan - 07:42:55 10° W 07:50:44 59° NNW 07:58:51 10° ENE daylight
29 Jan - 09:33:03 10° WNW 09:41:01 49° N 09:48:32 10° ENE daylight
29 Jan - 11:23:01 10° WNW 11:31:07 67° NNE 11:38:05 10° E daylight
29 Jan - 13:13:01 10° WNW 13:20:22 56° SSW 13:26:23 10° SE visible
29 Jan - 15:05:22 10° WSW 15:08:31 14° SW 15:11:22 10° S visible
